Tracking 28790 objects as of 19-Apr-2024
HD Live streaming from Space Station
objects crossing your sky now

STARLINK-1620

Track STARLINK-1620 now!
10-day predictions
STARLINK-1620 is classified as:


NORAD ID: 46149
Int'l Code: 2020-057AJ
Perigee: 539.8 km
Apogee: 547.0 km
Inclination: 53.1 °
Period: 95.4 minutes
Semi major axis: 6914 km
RCS: Unknown
Launch date: August 18, 2020
Source: United States (US)
Launch site: AIR FORCE EASTERN TEST RANGE (AFETR)
Your satellite tracking list
Your tracking list is empty




NASA's NSSDC Master Catalog

Two Line Element Set (TLE):
1 46149U 20057AJ  24109.40438755  .00057986  00000-0  35200-2 0  9997
2 46149  53.0529 154.9346 0005191  38.7469 321.3893 15.09969034203588
Source of the keplerian elements: AFSPC